Skip Page Navigation
NASA JPL Caltech
NASA Logo - Jet Propulsion Laboratory + View the NASA Portal
+ Center for Near-Earth Object Studies
JPL Home Earth Solar System Stars & Galaxies Technology
JPL Solar System Dynamics
BODIES ORBITS EPHEMERIDES TOOLS PHYSICAL DATA DISCOVERY FAQ SITE MAP
IMPORTANT: The SSD Announcement email list is now available. Major changes are coming in the near future, including possible hostname and/or URL changes. To be notified of such changes, subscribe to this email list.

Please visit this page for more details.


JPL Small-Body Database Browser
Search: [ help ]  
410753 (2009 DH52)
Classification: Main-belt Asteroid          SPK-ID: 2410753
Ephemeris | Orbit Diagram | Orbital Elements | Mission Design | Physical Parameters | Discovery Circumstances ]

[ show orbit diagram ]
Orbital Elements at Epoch 2458600.5 (2019-Apr-27.0) TDB
Reference: JPL 10 (heliocentric ecliptic J2000)
 Element Value Uncertainty (1-sigma)   Units 
e .1121371709102364 6.5138e-08  
a 2.229085601777121 2.6554e-08 au
q 1.979122248677093 1.434e-07 au
i 7.545716356129145 7.8805e-06 deg
node 109.7347363982963 7.3024e-05 deg
peri 332.6818091351722 8.6169e-05 deg
M 69.17478494036897 4.6905e-05 deg
tp 2458366.920962934094
(2018-Sep-05.42096293)
0.00015695 TDB
period 1215.593997382332
3.33
2.1721e-05
5.947e-08
d
yr
n .29615151175082 5.2919e-09 deg/d
Q 2.479048954877149 2.9532e-08 au
  Orbit Determination Parameters
   # obs. used (total)      51  
   data-arc span      3671 days (10.05 yr)  
   first obs. used      2009-01-20  
   last obs. used      2019-02-08  
   planetary ephem.      DE431  
   SB-pert. ephem.      SB431-N16  
   condition code      0  
   norm. resid. RMS      .63641  
   source      ORB  
   producer      Otto Matic  
   solution date      2019-Jul-14 12:24:03  

Additional Information
 Earth MOID = .998468 au 
 Jupiter MOID = 2.70061 au 
 T_jup = 3.624 
[ show covariance matrix ]

Ephemeris | Orbit Diagram | Orbital Elements | Mission Design | Physical Parameters | Discovery Circumstances ]

Physical Parameter Table
Parameter Symbol Value Units Sigma Reference Notes
absolute magnitude H 18.1   n/a MPO419025  

410753 (2009 DH52)          Discovered 2009-Jan-20 by Spacewatch at Kitt Peak
Reference: Last Updated: 2014-10-09
Ephemeris | Orbit Diagram | Orbital Elements | Mission Design | Physical Parameters | Discovery Circumstances ]
ABOUT SSD CREDITS/AWARDS PRIVACY/COPYRIGHT GLOSSARY LINKS
FirstGov 2020-Jan-19 05:50 UT
(server date/time)  
NASA Home Page
Site Manager:   Ryan S. Park
Webmaster  Alan B. Chamberlin